Weather History for KTTA - October, 2013

Change the Weather History Date:

Thursday, October 31, 2013

  Actual Average (KRDU) Record (KRDU)
Temperature  
Mean Temperature 62 °F 57 °F  
Max Temperature 76 °F 69 °F 85 °F (1950)
Min Temperature 49 °F 45 °F 30 °F (1963)
Degree Days  
Heating Degree Days 2 9  
Month to date heating degree days 168  
Since 1 July heating degree days 189  
Cooling Degree Days 0 1  
Month to date cooling degree days 52  
Year to date cooling degree days 1720  
Growing Degree Days 12 (Base 50)    
Moisture  
Dew Point 54 °F    
Average Humidity 76    
Maximum Humidity 97    
Minimum Humidity 45    
Precipitation  
Precipitation 0.00 in 0.10 in 4.18 in (1887)
Month to date precipitation 3.25  
Year to date precipitation 37.15  
Sea Level Pressure  
Sea Level Pressure 30.10 in    
Wind  
Wind Speed 2 mph (South)    
Max Wind Speed 12 mph    
Max Gust Speed 17 mph    
Visibility 7 miles    
Events      
T = Trace of Precipitation, MM = Missing Value Source: NWS Daily Summary

Daily Weather History Graph

Daily Weather History Graph

Search for Another Location

Airport or City:

Trip Planner

Search our weather history database for the weather conditions in past years. The results will help you decide how hot, cold, wet, or windy it might be!

Date:

Astronomy

Oct. 31, 2013 Rise Set
Actual Time 7:37 AM EDT 6:21 PM EDT
Civil Twilight 7:11 AM EDT 6:48 PM EDT
Nautical Twilight 6:41 AM EDT 7:18 PM EDT
Astronomical Twilight 6:11 AM EDT 7:48 PM EDT
Moon 4:31 AM EDT (10/31) 4:34 PM EDT (10/31)
Length of Visible Light 11h 37m
Length of Day
10h 44m
Waning Crescent, 10% of the Moon is Illuminated
Oct 31
Waning Crescent
Nov 3
New
Nov 10
First Quarter
Nov 17
Full
Nov 25
Last Quarter

Hourly Weather History & Observations

Time (EDT) Temp. Dew Point Humidity Pressure Visibility Wind Dir Wind Speed Gust Speed Precip Events Conditions
12:15 AM 56.1 °F 55.0 °F 96% 30.21 in 4.0 mi Calm Calm - N/A   Clear
12:35 AM 55.4 °F 54.1 °F 96% 30.20 in 2.5 mi Calm Calm - N/A   Clear
12:55 AM 54.5 °F 53.2 °F 96% 30.20 in 4.0 mi Calm Calm - N/A   Clear
1:15 AM 54.0 °F 52.9 °F 96% 30.20 in 2.0 mi Calm Calm - N/A   Clear
1:35 AM 53.8 °F 52.9 °F 97% 30.19 in 3.0 mi Calm Calm - N/A   Clear
1:55 AM 53.2 °F 52.3 °F 97% 30.19 in 3.0 mi Calm Calm - N/A   Clear
2:15 AM 53.4 °F 52.5 °F 97% 30.19 in 3.0 mi Calm Calm - N/A   Clear
2:35 AM 53.6 °F 52.7 °F 97% 30.19 in 0.8 mi Calm Calm - N/A   Mist
2:55 AM 52.9 °F 52.0 °F 97% 30.19 in 0.8 mi Calm Calm - N/A   Mist
3:15 AM 51.8 °F 50.9 °F 97% 30.19 in 5.0 mi Calm Calm - N/A   Clear
3:35 AM 52.3 °F 51.3 °F 96% 30.19 in 5.0 mi Calm Calm - N/A   Clear
3:55 AM 51.8 °F 50.7 °F 96% 30.19 in 3.0 mi Calm Calm - N/A   Clear
4:15 AM 52.2 °F 51.3 °F 97% 30.19 in 4.0 mi Calm Calm - N/A   Clear
4:35 AM 51.4 °F 50.5 °F 97% 30.18 in 5.0 mi Calm Calm - N/A   Clear
4:55 AM 51.1 °F 50.0 °F 96% 30.18 in 3.0 mi Calm Calm - N/A   Clear
5:15 AM 51.1 °F 50.2 °F 97% 30.17 in 4.0 mi Calm Calm - N/A   Clear
5:35 AM 50.5 °F 49.5 °F 96% 30.17 in 10.0 mi Calm Calm - N/A   Clear
5:55 AM 50.4 °F 49.1 °F 95% 30.17 in 7.0 mi Calm Calm - N/A   Clear
6:15 AM 51.4 °F 50.4 °F 96% 30.17 in 2.0 mi Calm Calm - N/A   Clear
6:35 AM 50.9 °F 50.0 °F 97% 30.17 in 3.0 mi Calm Calm - N/A   Clear
6:55 AM 50.9 °F 49.8 °F 96% 30.18 in 4.0 mi Calm Calm - N/A   Clear
7:15 AM 50.2 °F 49.1 °F 96% 30.18 in 3.0 mi Calm Calm - N/A   Clear
7:35 AM 49.6 °F 48.6 °F 96% 30.17 in 4.0 mi Calm Calm - N/A   Clear
7:55 AM 49.8 °F 48.4 °F 95% 30.18 in 1.2 mi Calm Calm - N/A   Mist
8:15 AM 49.6 °F 48.6 °F 96% 30.18 in 4.0 mi Calm Calm - N/A   Clear
8:35 AM 51.4 °F 50.4 °F 96% 30.17 in 3.0 mi Calm Calm - N/A   Clear
8:55 AM 53.8 °F 52.7 °F 96% 30.18 in 3.0 mi Calm Calm - N/A   Clear
9:15 AM 56.3 °F 54.9 °F 95% 30.18 in 5.0 mi Calm Calm - N/A   Clear
9:35 AM 57.7 °F 56.3 °F 95% 30.18 in 4.0 mi Calm Calm - N/A   Clear
9:55 AM 59.0 °F 57.0 °F 93% 30.17 in 5.0 mi Calm Calm - N/A   Clear
10:15 AM 61.0 °F 57.9 °F 90% 30.18 in 7.0 mi Calm Calm - N/A   Clear
10:35 AM 63.7 °F 57.9 °F 81% 30.17 in 10.0 mi Calm Calm - N/A   Clear
10:55 AM 66.2 °F 58.1 °F 75% 30.15 in 10.0 mi Calm Calm - N/A   Clear
11:15 AM 70.0 °F 58.1 °F 66% 30.15 in 10.0 mi South 5.8 mph - N/A   Clear
11:35 AM 72.0 °F 57.7 °F 61% 30.15 in 10.0 mi South 5.8 mph - N/A   Clear
11:55 AM 73.6 °F 57.2 °F 56% 30.14 in 10.0 mi South 10.4 mph - N/A   Clear
12:15 PM 73.8 °F 56.3 °F 54% 30.14 in 10.0 mi SSW 10.4 mph 17.3 mph N/A   Clear
12:35 PM 74.3 °F 55.6 °F 52% 30.12 in 10.0 mi South 11.5 mph 16.1 mph N/A   Clear
12:55 PM 74.8 °F 54.7 °F 49% 30.11 in 10.0 mi South 11.5 mph - N/A   Clear
1:15 PM 74.8 °F 54.9 °F 50% 30.10 in 10.0 mi South 9.2 mph - N/A   Clear
1:35 PM 75.2 °F 55.4 °F 50% 30.08 in 10.0 mi SSW 8.1 mph - N/A   Clear
1:55 PM 75.9 °F 54.0 °F 46% 30.07 in 10.0 mi South 8.1 mph - N/A   Scattered Clouds
2:15 PM 76.3 °F 53.4 °F 45% 30.06 in 10.0 mi SSW 11.5 mph 17.3 mph N/A   Clear
2:35 PM 75.2 °F 53.8 °F 47% 30.06 in 10.0 mi South 10.4 mph - N/A   Clear
2:55 PM 74.5 °F 54.7 °F 50% 30.05 in 10.0 mi South 8.1 mph - N/A   Clear
3:15 PM 74.5 °F 54.5 °F 50% 30.05 in 10.0 mi South 8.1 mph - N/A   Clear
3:35 PM 73.9 °F 54.5 °F 51% 30.05 in 10.0 mi SSW 8.1 mph - N/A   Clear
3:55 PM 73.4 °F 54.5 °F 51% 30.04 in 10.0 mi South 8.1 mph - N/A   Clear
4:15 PM 72.9 °F 54.9 °F 53% 30.03 in 10.0 mi South 4.6 mph - N/A   Clear
4:35 PM 72.0 °F 54.9 °F 55% 30.02 in 10.0 mi South 5.8 mph - N/A   Clear
4:55 PM 71.8 °F 54.9 °F 55% 30.03 in 10.0 mi South 4.6 mph - N/A   Clear
5:15 PM 71.2 °F 55.4 °F 57% 30.02 in 10.0 mi South 4.6 mph - N/A   Clear
5:35 PM 70.9 °F 54.7 °F 56% 30.01 in 10.0 mi SSE 4.6 mph - N/A   Clear
5:55 PM 70.0 °F 54.5 °F 58% 30.00 in 10.0 mi SSE 4.6 mph - N/A   Clear
6:15 PM 69.1 °F 54.5 °F 60% 30.00 in 10.0 mi South 3.5 mph - N/A   Clear
6:35 PM 68.0 °F 54.1 °F 61% 30.00 in 10.0 mi SSE 3.5 mph - N/A   Scattered Clouds
6:55 PM 68.0 °F 53.8 °F 60% 29.99 in 10.0 mi SSE 4.6 mph - N/A   Scattered Clouds
7:15 PM 67.1 °F 53.8 °F 62% 29.99 in 10.0 mi South 3.5 mph - N/A   Scattered Clouds
7:35 PM 67.1 °F 54.0 °F 63% 29.99 in 10.0 mi SSE 3.5 mph - N/A   Scattered Clouds
7:55 PM 66.2 °F 54.1 °F 65% 29.99 in 10.0 mi South 3.5 mph - N/A   Clear
8:15 PM 67.1 °F 54.7 °F 64% 29.99 in 10.0 mi SSE 4.6 mph - N/A   Clear
8:35 PM 66.6 °F 55.0 °F 66% 29.99 in 10.0 mi South 3.5 mph - N/A   Clear
8:55 PM 66.7 °F 55.6 °F 67% 29.98 in 10.0 mi South 4.6 mph - N/A   Scattered Clouds
9:15 PM 67.1 °F 56.3 °F 68% 29.99 in 10.0 mi South 4.6 mph - N/A   Mostly Cloudy
9:35 PM 67.5 °F 57.0 °F 69% 29.98 in 10.0 mi SSE 4.6 mph - N/A   Overcast
9:55 PM 67.5 °F 57.6 °F 70% 29.97 in 10.0 mi SSE 5.8 mph - N/A   Scattered Clouds
10:15 PM 68.0 °F 59.2 °F 73% 29.97 in 10.0 mi South 8.1 mph - N/A   Mostly Cloudy
10:35 PM 68.9 °F 60.6 °F 75% 29.96 in 10.0 mi South 9.2 mph - N/A   Overcast
10:55 PM 69.1 °F 61.7 °F 77% 29.96 in 10.0 mi South 8.1 mph - N/A   Overcast
11:15 PM 69.4 °F 62.4 °F 78% 29.96 in 10.0 mi South 9.2 mph - N/A   Mostly Cloudy
11:35 PM 69.3 °F 62.8 °F 80% 29.95 in 10.0 mi South 9.2 mph - N/A   Mostly Cloudy
11:55 PM 69.3 °F 63.1 °F 81% 29.95 in 10.0 mi South 9.2 mph 16.1 mph N/A   Scattered Clouds